Location: Schommer Observatory
(40.5200°N, 74.4500°W)
Time: 04:59:21
(UTC-04:00)

Tiangong 2 - Pass Details

Date: 17 May 2018
Orbit: 382 x 385 km, 42.8° (Epoch: 23 May)

Event Time Altitude Azimuth Distance (km) Brightness Sun altitude
Exits shadow 02:34:57 13° 78° (ENE) 1,240 4.0 -25.7°
Drops below altitude 10° 02:35:21 10° 80° (E) 1,400 4.3 -25.7°
Sets 02:37:27 0° 85° (E) 2,253 5.4 -25.5°
